Coolangatta, Queensland

9:02 AM AEST on October 02, 2016 (GMT +1000)
Coolangatta

Weather History for YBCG - April, 2013

Change the Weather History Date:

Wednesday, April 3, 2013

  Actual Average (YBBN) Record (YBBN)
Temperature  
Mean Temperature 70 °F -  
Max Temperature 78 °F 78 °F 84 °F (1997)
Min Temperature 63 °F 62 °F 57 °F (2008)
Cooling Degree Days 6    
Growing Degree Days 20 (Base 50)    
Moisture  
Dew Point 63 °F    
Average Humidity 78    
Maximum Humidity 94    
Minimum Humidity 55    
Precipitation  
Precipitation 0.55 in - - ()
Sea Level Pressure  
Sea Level Pressure 30.04 in    
Wind  
Wind Speed 6 mph ()    
Max Wind Speed 18 mph    
Max Gust Speed 32 mph    
Visibility 6.0 miles    
Events      
Averages and records for this station are not official NWS values.
T = Trace of Precipitation, MM = Missing Value Source: Averaged Metar Reports

Daily Weather History Graph

Daily Weather History Graph

Search for Another Location

Airport or City:

Trip Planner

Search our weather history database for the weather conditions in past years. The results will help you decide how hot, cold, wet, or windy it might be!

Date:

Astronomy

Apr. 03, 2013 Rise Set
Actual Time 5:56 AM AEST 5:41 PM AEST
Civil Twilight 5:33 AM AEST 6:04 PM AEST
Nautical Twilight 5:06 AM AEST 6:32 PM AEST
Astronomical Twilight 4:38 AM AEST 6:59 PM AEST
Moon 11:38 PM AEST (4/3) 12:32 PM AEST (4/3)
Length of Visible Light 12h 31m
Length of Day
11h 44m
Waning Gibbous, 51% of the Moon is Illuminated
Apr 3
Waning Gibbous
Apr 3
Last Quarter
Apr 10
New
Apr 18
First Quarter
Apr 26
Full

Hourly Weather History & Observations

Time (AEST) Temp. Dew Point Humidity Pressure Visibility Wind Dir Wind Speed Gust Speed Precip Events Conditions
12:00 AM 66.2 °F 62.6 °F 88% 29.98 in 6.2 mi SSW 4.6 mph - N/A   Mostly Cloudy
12:30 AM 66.2 °F 62.6 °F 88% 29.98 in 6.2 mi SW 2.3 mph - N/A   Mostly Cloudy
1:00 AM 66.2 °F 62.6 °F 88% 29.98 in 6.2 mi WSW 3.5 mph - N/A   Mostly Cloudy
1:30 AM 66.2 °F 62.6 °F 88% 29.98 in 6.2 mi SW 5.8 mph - N/A   Mostly Cloudy
2:00 AM 66.2 °F 62.6 °F 88% 29.98 in 6.2 mi SW 3.5 mph - N/A   Mostly Cloudy
2:30 AM 66.2 °F 62.6 °F 88% 29.98 in 6.2 mi WSW 4.6 mph - N/A   Mostly Cloudy
3:00 AM 65 °F 62 °F 86% 29.98 in - SW 4.6 mph - -  
3:00 AM 64.4 °F 62.6 °F 94% 29.98 in 6.2 mi SW 4.6 mph - N/A   Scattered Clouds
3:30 AM 64.4 °F 60.8 °F 88% 29.98 in 6.2 mi SSW 4.6 mph - N/A   Scattered Clouds
4:00 AM 64.4 °F 60.8 °F 88% 29.98 in 6.2 mi SW 4.6 mph - N/A   Unknown
4:30 AM 62.6 °F 60.8 °F 94% 29.98 in 6.2 mi SSW 3.5 mph - N/A   Unknown
5:00 AM 64.4 °F 62.6 °F 94% 30.01 in 6.2 mi SSW 3.5 mph - N/A   Unknown
5:30 AM 64.4 °F 60.8 °F 88% 30.01 in 6.2 mi SSW 3.5 mph - N/A   Mostly Cloudy
6:00 AM 64 °F 62 °F 91% 30.01 in - SW 2.3 mph - -  
6:00 AM 64.4 °F 62.6 °F 94% 30.01 in 6.2 mi SSW 2.3 mph - N/A   Unknown
6:30 AM 64.4 °F 60.8 °F 88% 30.01 in 6.2 mi Calm Calm - N/A   Unknown
7:00 AM 66.2 °F 62.6 °F 88% 30.04 in 6.2 mi SW 6.9 mph - N/A   Unknown
7:30 AM 69.8 °F 64.4 °F 83% 30.04 in 6.2 mi SSW 4.6 mph - N/A   Unknown
8:00 AM 73.4 °F 64.4 °F 73% 30.04 in 6.2 mi SSW 4.6 mph - N/A   Unknown
8:30 AM 75.2 °F 62.6 °F 65% 30.04 in 6.2 mi South 8.1 mph - N/A   Unknown
9:00 AM 76 °F 63 °F 55% 30.06 in - South 8.1 mph - -  
9:00 AM 77.0 °F 62.6 °F 61% 30.04 in 6.2 mi South 8.1 mph - N/A   Scattered Clouds
9:30 AM 77.0 °F 62.6 °F 61% 30.04 in 6.2 mi South 6.9 mph - N/A   Unknown
10:00 AM 78.8 °F 64.4 °F 61% 30.04 in 6.2 mi South 6.9 mph - N/A   Scattered Clouds
10:30 AM 78.8 °F 64.4 °F 61% 30.04 in 6.2 mi SE 12.7 mph - N/A   Mostly Cloudy
10:51 AM 71.6 °F 64.4 °F 78% 30.06 in 3.7 mi SSE 12.7 mph - N/A   Overcast
11:00 AM 73.4 °F 66.2 °F 78% 30.06 in 5.6 mi ESE 6.9 mph - N/A   Overcast
11:05 AM 73.4 °F 66.2 °F 78% 30.06 in 6.2 mi ESE 6.9 mph - N/A   Overcast
11:30 AM 75.2 °F 66.2 °F 73% 30.04 in 6.2 mi ESE 12.7 mph - N/A   Overcast
12:00 PM 73 °F 66 °F 72% 30.05 in 6 mi East 6.9 mph - -   Overcast
12:00 PM 73.4 °F 66.2 °F 78% 30.04 in 5.6 mi East 6.9 mph - N/A   Overcast
12:30 PM 77.0 °F 64.4 °F 65% 30.01 in 6.2 mi ESE 8.1 mph - N/A   Mostly Cloudy
1:00 PM 78.8 °F 66.2 °F 65% 30.01 in 6.2 mi East 9.2 mph - N/A   Mostly Cloudy
1:30 PM 77.0 °F 64.4 °F 65% 30.01 in 6.2 mi ESE 11.5 mph - N/A   Overcast
2:00 PM 75.2 °F 62.6 °F 65% 30.01 in 6.2 mi SE 11.5 mph - N/A   Scattered Clouds
2:30 PM 75.2 °F 62.6 °F 65% 30.01 in 6.2 mi SE 9.2 mph - N/A   Mostly Cloudy
3:00 PM 76 °F 64 °F 59% 30.02 in - ESE 8.1 mph - -   Overcast
3:00 PM 75.2 °F 64.4 °F 69% 30.01 in 6.2 mi ESE 8.1 mph - N/A   Overcast
3:30 PM 75.2 °F 62.6 °F 65% 30.01 in 6.2 mi SE 11.5 mph - N/A   Mostly Cloudy
4:00 PM 75.2 °F 64.4 °F 69% 30.04 in 6.2 mi SSE 9.2 mph - N/A   Mostly Cloudy
4:30 PM 75.2 °F 62.6 °F 65% 30.04 in 6.2 mi SSE 9.2 mph - N/A   Overcast
5:00 PM 75.2 °F 62.6 °F 65% 30.04 in 6.2 mi SSE 10.4 mph - N/A   Overcast
5:30 PM 73.4 °F 62.6 °F 69% 30.04 in 6.2 mi South 10.4 mph - N/A   Scattered Clouds
6:00 PM 72 °F 63 °F 65% 30.06 in - SSW 5.8 mph - -  
6:00 PM 71.6 °F 62.6 °F 73% 30.06 in 6.2 mi South 5.8 mph - N/A   Scattered Clouds
6:30 PM 69.8 °F 62.6 °F 78% 30.06 in 6.2 mi South 6.9 mph - N/A   Unknown
7:00 PM 71.6 °F 62.6 °F 73% 30.06 in 6.2 mi South 9.2 mph - N/A   Scattered Clouds
7:30 PM 71.6 °F 62.6 °F 73% 30.06 in 6.2 mi South 8.1 mph - N/A   Scattered Clouds
8:00 PM 69.8 °F 62.6 °F 78% 30.09 in 6.2 mi SSW 6.9 mph - N/A   Scattered Clouds
8:24 PM 68.0 °F 62.6 °F 83% 30.09 in - SSW 10.4 mph 21.9 mph N/A   Mostly Cloudy
8:30 PM 68.0 °F 64.4 °F 88% 30.09 in 0.7 mi South 12.7 mph - N/A   Overcast
8:50 PM 68.0 °F 66.2 °F 94% 30.09 in 6.2 mi SW 6.9 mph - N/A   Overcast
9:00 PM 68 °F 66 °F 90% 30.11 in - SW 6.9 mph - -   Overcast
9:00 PM 68.0 °F 66.2 °F 94% 30.09 in 6.2 mi SW 6.9 mph - N/A   Mostly Cloudy
9:30 PM 68.0 °F 64.4 °F 88% 30.09 in 6.2 mi SW 8.1 mph - N/A   Unknown
9:59 PM 68.0 °F 64.4 °F 88% 30.15 in 6.2 mi South 17.3 mph 32.2 mph N/A   Scattered Clouds
10:00 PM 68.0 °F 64.4 °F 88% 30.15 in 6.2 mi South 18.4 mph 32.2 mph N/A   Scattered Clouds
10:30 PM 64.4 °F 60.8 °F 88% 30.15 in 5.6 mi South 11.5 mph - N/A   Overcast
11:00 PM 64.4 °F 60.8 °F 88% 30.12 in 6.2 mi SW 9.2 mph - N/A   Overcast
11:30 PM 64.4 °F 60.8 °F 88% 30.12 in 6.2 mi SSW 6.9 mph - N/A   Mostly Cloudy